[[{"header":{"parameterUnit":"m.s-1","parameterCategory":2,"la1":30.2992,"la2":30.254,"lo1":-89.0895,"lo2":-89.0443,"dy":0.0025,"dx":0.0025,"nx":19,"ny":19,"refTime":"2026-05-09T03:00:00:Z","depth":"0","parameterNumber":2,"parameterNumberName":"U-component_of_CURRENTS"},"data":[0,0,0,0.2116,0.2117,0.216,0.2161,0.223,0.223,0,0,0,0,0,0,0,0,0,0,0,0.2097,0.2097,0.2116,0.2117,0.216,0.2161,0.223,0.223,0,0,0,0,0,0,0,0,0,0,0,0.2097,0.2097,0.2097,0.2117,0.216,0.2161,0.223,0.2196,0,0,0,0,0,0,0,0,0,0,0.2153,0.2136,0.2097,0.2097,0.2117,0.216,0.2161,0.2194,0.2198,0.2211,0,0.2208,0,0.2219,0.2234,0.2235,0,0,0,0.2126,0.2133,0.2137,0.2097,0.2118,0.216,0.2143,0.2196,0.22,0.2216,0.2209,0.2212,0.222,0.2235,0.2235,0.2243,0.2243,0,0,0.2124,0.2117,0.2134,0.2139,0.2117,0.2142,0.2145,0.2199,0.2203,0.221,0.2214,0.2222,0.2235,0.2236,0.2244,0.2243,0,0,0,0.2111,0.2115,0.2118,0.2136,0.2142,0.2143,0.2146,0.2201,0.2199,0.2215,0.2222,0.2236,0.2236,0.2244,0.2243,0.2218,0,0,0,0.211,0.2107,0.2116,0.2114,0.2141,0.2172,0.2147,0.2195,0.2202,0.2222,0.2236,0.2237,0.2244,0.2244,0.2219,0.222,0,0,0,0.2097,0.2106,0.2105,0.2113,0.2128,0.2171,0.2174,0.2197,0.2206,0.2235,0.2237,0.2245,0.2244,0.2221,0.2222,0.2256,0,0,0,0.2097,0.2076,0.2105,0.2094,0.2127,0.2135,0.2173,0.2194,0.2214,0.2236,0.2244,0.2243,0.2221,0.2223,0.2257,0.2218,0.2213,0,0,0.2064,0.2072,0.2066,0.2093,0.2092,0.213,0.2133,0.2179,0.2205,0.223,0.2231,0.2219,0.2222,0.2256,0.2167,0.2164,0,0,0,0.2053,0.204,0.205,0.2058,0.2083,0.2108,0.2142,0.2163,0.2191,0.2211,0.2208,0.2211,0.2234,0.221,0.2207,0.2098,0.2239,0.2239,0.224,0.1965,0.1994,0.1988,0.2018,0.2037,0.2086,0.2112,0.2142,0.2164,0.2167,0.2181,0.2178,0.215,0.2148,0.2034,0.2165,0.2165,0.2165,0.2165,0.1907,0.191,0.1947,0.1951,0.1995,0.2008,0.2077,0.2104,0.2148,0.215,0.2174,0.2172,0.2144,0.2023,0.2163,0.2164,0.2164,0.2164,0.2164,0.1854,0.1867,0.1872,0.1901,0.1923,0.198,0.2029,0.2081,0.2132,0.2149,0.2159,0.2159,0.2065,0.217,0.217,0.217,0.217,0.217,0.217,0.1817,0.1828,0.1838,0.1863,0.1881,0.1926,0.2012,0.2058,0.2117,0.2138,0.2138,0.2035,0.2181,0.2195,0.2172,0.2172,0.2171,0.2171,0.2171,0.1794,0.1807,0.1821,0.1834,0.1868,0.1868,0.1963,0.2026,0.2086,0.2103,0.1991,0.2143,0.2161,0.2162,0.2176,0.215,0.215,0.215,0.215,0.1785,0.1792,0.1816,0.183,0.184,0.1846,0.1841,0.1899,0.1931,0.1907,0.1919,0.1869,0.1875,0.1873,0.1881,0.1888,0.179,0.1789,0.1789,0.1791,0.1799,0.1806,0.1815,0.1817,0.1796,0.1738,0.1674,0.1705,0.1764,0.1771,0.1787,0.1704,0.1722,0.1714,0.1734,0.1745,0,0]},{"header":{"parameterUnit":"m.s-1","parameterCategory":2,"la1":30.2992,"la2":30.254,"lo1":-89.0895,"lo2":-89.0443,"dy":0.0025,"dx":0.0025,"nx":19,"ny":19,"refTime":"2026-05-09T03:00:00:Z","depth":"0","parameterNumber":3,"parameterNumberName":"V-component_of_CURRENTS"},"data":[0,0,0,0.0281,0.0281,0.0285,0.0285,0.0279,0.0278,0,0,0,0,0,0,0,0,0,0,0,0.0276,0.0276,0.0281,0.0281,0.0285,0.0285,0.0279,0.0278,0,0,0,0,0,0,0,0,0,0,0,0.0276,0.0276,0.0275,0.0281,0.0285,0.0285,0.0279,0.0278,0,0,0,0,0,0,0,0,0,0,0.0276,0.0275,0.0276,0.0275,0.0282,0.0285,0.0285,0.0278,0.0278,0.0275,0,0.0275,0,0.028,0.0278,0.0278,0,0,0,0.0278,0.0275,0.0275,0.0275,0.0282,0.0285,0.0282,0.0278,0.0278,0.0275,0.0275,0.0275,0.028,0.0278,0.0278,0.0304,0.0304,0,0,0.0278,0.0276,0.0275,0.0275,0.0281,0.0282,0.0282,0.0278,0.0277,0.0275,0.0275,0.028,0.0278,0.0278,0.0303,0.0304,0,0,0,0.028,0.0276,0.0277,0.0275,0.0279,0.0282,0.0283,0.0277,0.0278,0.0275,0.0279,0.0278,0.0278,0.0303,0.0303,0.0369,0,0,0,0.0279,0.0277,0.0277,0.0276,0.0279,0.028,0.0282,0.0278,0.0278,0.0279,0.0278,0.0278,0.0303,0.0303,0.0366,0.0424,0,0,0,0.0276,0.0277,0.0277,0.0276,0.0279,0.028,0.028,0.0278,0.0281,0.0278,0.0278,0.0302,0.0303,0.0364,0.0419,0.0505,0,0,0,0.0274,0.0282,0.0277,0.0286,0.0279,0.0295,0.028,0.0289,0.0289,0.0278,0.0303,0.0303,0.0363,0.0416,0.0501,0.056,0.0583,0,0,0.0286,0.0283,0.029,0.0286,0.0308,0.0294,0.0327,0.0319,0.03,0.0302,0.0302,0.0367,0.0419,0.0504,0.0603,0.0625,0,0,0,0.0295,0.0303,0.0307,0.0317,0.0322,0.0354,0.0339,0.0348,0.0361,0.0304,0.0364,0.0395,0.0447,0.0474,0.0491,0.0419,0.0307,0.0307,0.0307,0.0316,0.0321,0.0344,0.0356,0.037,0.0393,0.0426,0.0436,0.0393,0.0414,0.0445,0.0553,0.0579,0.0594,0.0518,0.0425,0.0425,0.0425,0.0425,0.0356,0.0381,0.0388,0.0413,0.044,0.0471,0.0519,0.0516,0.0581,0.0513,0.056,0.0536,0.0617,0.0529,0.043,0.0429,0.0428,0.0428,0.0428,0.0383,0.0403,0.0408,0.0456,0.0515,0.0546,0.0659,0.0667,0.0663,0.0707,0.0747,0.0745,0.0676,0.0729,0.073,0.073,0.0731,0.0731,0.0732,0.0424,0.0434,0.0476,0.0519,0.0564,0.0654,0.0754,0.0819,0.0874,0.0853,0.0853,0.0709,0.0646,0.0643,0.0741,0.074,0.0738,0.0737,0.0737,0.0498,0.0491,0.0553,0.0593,0.0702,0.0818,0.0899,0.1039,0.1091,0.1131,0.0933,0.0933,0.0931,0.0916,0.0919,0.1084,0.1084,0.1084,0.1084,0.0551,0.0552,0.0636,0.0709,0.0814,0.0902,0.1102,0.1204,0.1163,0.1105,0.1033,0.0942,0.0931,0.0922,0.0907,0.0906,0.1064,0.1064,0.1064,0.0623,0.0628,0.07,0.0746,0.0858,0.0996,0.1178,0.1307,0.1191,0.1051,0.0926,0.0927,0.0773,0.0762,0.0725,0.071,0.0699,0,0]}],[{"header":{"parameterUnit":"m.s-1","parameterCategory":2,"la1":30.2992,"la2":30.254,"lo1":-89.0895,"lo2":-89.0443,"dy":0.0025,"dx":0.0025,"nx":19,"ny":19,"refTime":"2026-05-09T03:00:00:Z","depth":"2","parameterNumber":2,"parameterNumberName":"U-component_of_CURRENTS"},"data":[0,0,0,0.1626,0.1627,0.1666,0.1666,0.1736,0.1737,0,0,0,0,0,0,0,0,0,0,0,0.1604,0.1604,0.1625,0.1627,0.1666,0.1666,0.1736,0.1737,0,0,0,0,0,0,0,0,0,0,0,0.1603,0.1604,0.1604,0.1627,0.1666,0.1666,0.1736,0.1698,0,0,0,0,0,0,0,0,0,0,0.1656,0.164,0.1604,0.1604,0.1628,0.1666,0.1666,0.1696,0.1701,0.1728,0,0.1738,0,0.175,0.1744,0.1744,0,0,0,0.1614,0.1636,0.1649,0.1604,0.1628,0.1666,0.1645,0.1698,0.1704,0.1735,0.1739,0.1742,0.1751,0.1744,0.1745,0.1816,0.1816,0,0,0.1612,0.1609,0.1646,0.1653,0.1644,0.1644,0.1646,0.1701,0.1709,0.1739,0.1744,0.1753,0.1745,0.1745,0.1816,0.1816,0,0,0,0.1614,0.1608,0.1618,0.165,0.1661,0.1645,0.1648,0.1706,0.171,0.1744,0.1753,0.1745,0.1746,0.1816,0.1816,0.1822,0,0,0,0.1612,0.161,0.1617,0.1616,0.166,0.1683,0.1651,0.1706,0.1713,0.1753,0.1745,0.1747,0.1816,0.1816,0.1821,0.1806,0,0,0,0.1601,0.1609,0.1615,0.1615,0.1639,0.1682,0.1689,0.1707,0.1719,0.1744,0.1748,0.1816,0.1816,0.1821,0.1806,0.1862,0,0,0,0.1593,0.1588,0.1615,0.1619,0.1639,0.1652,0.1688,0.1727,0.1751,0.1746,0.1816,0.1816,0.1821,0.1806,0.1861,0.1715,0.1708,0,0,0.1575,0.1586,0.1587,0.1612,0.1605,0.1645,0.1666,0.1732,0.1759,0.1797,0.1799,0.1822,0.1806,0.1862,0.1725,0.1717,0,0,0,0.1574,0.1567,0.1567,0.1582,0.1607,0.1635,0.17,0.1731,0.179,0.1777,0.1824,0.1813,0.1849,0.1759,0.1752,0.1817,0.1817,0.1817,0.1817,0.151,0.1537,0.1533,0.1563,0.1583,0.1651,0.1691,0.1751,0.1782,0.1818,0.182,0.1864,0.1767,0.1761,0.1832,0.1832,0.1832,0.1832,0.1832,0.1472,0.1484,0.1517,0.1526,0.1576,0.1614,0.1699,0.1752,0.1831,0.1823,0.1859,0.177,0.1754,0.1833,0.1833,0.1833,0.1833,0.1833,0.1833,0.1421,0.1444,0.1461,0.1511,0.1546,0.1609,0.1676,0.1754,0.1827,0.1865,0.1803,0.1801,0.188,0.1901,0.1901,0.1901,0.1902,0.1902,0.1902,0.14,0.142,0.1456,0.1499,0.1517,0.1574,0.1669,0.1722,0.1763,0.1786,0.1786,0.1888,0.1886,0.1885,0.1905,0.1904,0.1904,0.1903,0.1903,0.1379,0.1419,0.1446,0.1469,0.1511,0.1489,0.1587,0.1616,0.1689,0.1685,0.1759,0.1761,0.1751,0.1754,0.1749,0.1734,0.1734,0.1733,0.1733,0.1379,0.1403,0.1455,0.1469,0.1467,0.1452,0.1366,0.1357,0.1471,0.1468,0.148,0.1407,0.1419,0.1388,0.1399,0.1386,0.1276,0.1276,0.1275,0.1388,0.1405,0.1421,0.1455,0.1434,0.1367,0.1196,0.1067,0.1108,0.1259,0.1419,0.1699,0.1619,0.1628,0.1604,0.1612,0.1601,0,0]},{"header":{"parameterUnit":"m.s-1","parameterCategory":2,"la1":30.2992,"la2":30.254,"lo1":-89.0895,"lo2":-89.0443,"dy":0.0025,"dx":0.0025,"nx":19,"ny":19,"refTime":"2026-05-09T03:00:00:Z","depth":"2","parameterNumber":3,"parameterNumberName":"V-component_of_CURRENTS"},"data":[0,0,0,-0.0026,-0.0026,-0.0026,-0.0026,-0.0036,-0.0036,0,0,0,0,0,0,0,0,0,0,0,-0.0017,-0.0017,-0.0026,-0.0026,-0.0026,-0.0026,-0.0036,-0.0036,0,0,0,0,0,0,0,0,0,0,0,-0.0017,-0.0017,-0.0016,-0.0026,-0.0026,-0.0026,-0.0036,-0.0033,0,0,0,0,0,0,0,0,0,0,-0.0031,-0.0039,-0.0017,-0.0016,-0.0026,-0.0026,-0.0026,-0.0032,-0.0033,-0.0039,0,-0.0033,0,-0.004,-0.0037,-0.0037,0,0,0,-0.0024,-0.0038,-0.0024,-0.0016,-0.0026,-0.0026,-0.0025,-0.0032,-0.0033,-0.004,-0.0033,-0.0034,-0.004,-0.0037,-0.0037,0.001,0.001,0,0,-0.0024,-0.0033,-0.0023,-0.0024,-0.0019,-0.0025,-0.0025,-0.0033,-0.0039,-0.0033,-0.0034,-0.004,-0.0037,-0.0037,0.0009,0.001,0,0,0,-0.0025,-0.0033,-0.0018,-0.0023,-0.0025,-0.0025,-0.0025,-0.0039,-0.0029,-0.0034,-0.004,-0.0037,-0.0037,0.0008,0.0009,0.0076,0,0,0,-0.0025,-0.0034,-0.0018,-0.0026,-0.0025,-0.0036,-0.0031,-0.0029,-0.003,-0.004,-0.0037,-0.0038,0.0008,0.0009,0.0072,0.0121,0,0,0,-0.0018,-0.0034,-0.0028,-0.0026,-0.0027,-0.0035,-0.0027,-0.0029,-0.0034,-0.0037,-0.0038,0.0007,0.0009,0.0069,0.0116,0.0188,0,0,0,-0.0036,-0.001,-0.0028,-0.0009,-0.0027,0.0007,-0.0027,-0.0011,-0.0007,-0.0037,0.0008,0.0009,0.0068,0.0112,0.0184,0.0177,0.0195,0,0,-0.0006,-0.0007,0.0006,-0.001,0.0019,0.0007,0.0047,0.0035,0.0013,0.0008,0.0009,0.0073,0.0115,0.0188,0.0264,0.0279,0,0,0,0.0014,0.0028,0.0033,0.0038,0.0049,0.0081,0.0068,0.0073,0.0087,0.0021,0.0085,0.0111,0.0154,0.0141,0.0153,0.0016,0.0016,0.0016,0.0016,0.0057,0.0056,0.0083,0.0096,0.0114,0.0134,0.017,0.0177,0.0133,0.016,0.0173,0.0286,0.0273,0.0282,0.0171,0.0171,0.0171,0.0171,0.0172,0.0112,0.0129,0.0129,0.0158,0.0182,0.0219,0.0265,0.0263,0.032,0.0256,0.0294,0.0221,0.03,0.0177,0.0176,0.0175,0.0175,0.0174,0.0174,0.0135,0.0148,0.0159,0.02,0.0252,0.0285,0.0379,0.0395,0.0397,0.044,0.0424,0.0422,0.0338,0.0454,0.0454,0.0455,0.0456,0.0456,0.0456,0.0158,0.0173,0.0208,0.0253,0.0287,0.0364,0.0454,0.0508,0.0541,0.0521,0.052,0.0382,0.0373,0.0356,0.0465,0.0463,0.0462,0.0461,0.0461,0.0198,0.0201,0.0247,0.0281,0.0372,0.0474,0.0548,0.0654,0.0697,0.0717,0.0569,0.0564,0.0549,0.0537,0.0524,0.0671,0.0671,0.0671,0.0671,0.0222,0.0229,0.0284,0.0338,0.0431,0.0524,0.0683,0.074,0.0732,0.0663,0.0663,0.0577,0.0569,0.055,0.0538,0.0522,0.0669,0.0669,0.0669,0.0253,0.0257,0.0297,0.0344,0.0448,0.0584,0.0732,0.0799,0.0696,0.0667,0.0646,0.0674,0.0543,0.0533,0.0494,0.0478,0.0449,0,0]}],[{"header":{"parameterUnit":"m.s-1","parameterCategory":2,"la1":30.2992,"la2":30.254,"lo1":-89.0895,"lo2":-89.0443,"dy":0.0025,"dx":0.0025,"nx":19,"ny":19,"refTime":"2026-05-09T03:00:00:Z","depth":"4","parameterNumber":2,"parameterNumberName":"U-component_of_CURRENTS"},"data":[0,0,0,0.0224,0.0226,0.032,0.032,0.045,0.0451,0,0,0,0,0,0,0,0,0,0,0,0.0219,0.022,0.0224,0.0226,0.032,0.0321,0.045,0.0451,0,0,0,0,0,0,0,0,0,0,0,0.0219,0.022,0.0221,0.0226,0.032,0.0321,0.045,0.0382,0,0,0,0,0,0,0,0,0,0,0.0291,0.0267,0.022,0.0221,0.0226,0.032,0.0321,0.0378,0.0386,0.0403,0,0.0428,0,0.0422,0.0458,0.0458,0,0,0,0.0247,0.0261,0.0288,0.0221,0.0227,0.0319,0.0283,0.0383,0.0391,0.0413,0.0429,0.0433,0.0424,0.0459,0.0459,0.0568,0.0569,0,0,0.0242,0.0233,0.0283,0.0294,0.0264,0.028,0.0286,0.0388,0.0401,0.043,0.0436,0.0426,0.0459,0.046,0.0568,0.0569,0,0,0,0.0213,0.023,0.0255,0.0289,0.0294,0.0282,0.0289,0.0397,0.0406,0.0437,0.0427,0.046,0.0461,0.0568,0.0568,0.0644,0,0,0,0.0211,0.0211,0.0253,0.0248,0.0292,0.0341,0.0296,0.0401,0.041,0.0427,0.046,0.0462,0.0567,0.0568,0.0641,0.0608,0,0,0,0.0213,0.021,0.0226,0.0248,0.0276,0.0339,0.0355,0.0403,0.0403,0.0458,0.0462,0.0567,0.0568,0.0638,0.0605,0.0672,0,0,0,0.0194,0.0223,0.0226,0.0253,0.0275,0.0333,0.0355,0.0417,0.0468,0.046,0.0567,0.0568,0.0637,0.0603,0.0669,0.0513,0,0,0,0.0216,0.0226,0.0238,0.0242,0.029,0.0321,0.0379,0.0458,0.0487,0.0537,0.054,0.0642,0.0605,0.0671,0.0573,0,0,0,0,0.0234,0.0248,0.0268,0.0289,0.0329,0.0388,0.0439,0.0491,0.0591,0.0515,0.0641,0.0613,0.0654,0.0556,0.0573,0.0573,0.0573,0.0573,0.0573,0.027,0.0269,0.03,0.0321,0.0366,0.0437,0.0506,0.0579,0.061,0.0678,0.0679,0.0771,0.0671,0.0715,0.0715,0.0715,0.0716,0.0716,0.0716,0.0281,0.0283,0.0312,0.0348,0.041,0.0471,0.0584,0.0639,0.0743,0.0743,0.0783,0.0643,0.0724,0.0722,0.0721,0.072,0.072,0.0719,0.0719,0.0285,0.0283,0.0314,0.0345,0.0438,0.0516,0.06,0.0692,0.0785,0.0824,0.0752,0.081,0.0802,0.0883,0.0883,0.0883,0.0883,0.0883,0.0884,0.0261,0.0284,0.0296,0.0356,0.0402,0.0494,0.0626,0.0676,0.0774,0.0767,0.0848,0.0826,0.082,0.081,0.0886,0.0886,0.0886,0.0885,0.0885,0.0204,0.0237,0.0223,0.0256,0.0328,0.0397,0.0556,0.0635,0.0696,0.0708,0.0756,0.0762,0.0711,0.0708,0.0692,0.0736,0.0734,0.0733,0,0.0159,0.0175,0.0131,0.0127,0.0169,0.0303,0.0379,0.0466,0.0565,0.0551,0.0657,0.0706,0.0711,0.0645,0.064,0.0615,0,0,0,0.0085,0.0087,0.0024,0.0023,0.0064,0.021,0.0383,0.0388,0.0593,0.0571,0.0689,0.07,0.0739,0.0895,0.0829,0.0823,0.0802,0,0]},{"header":{"parameterUnit":"m.s-1","parameterCategory":2,"la1":30.2992,"la2":30.254,"lo1":-89.0895,"lo2":-89.0443,"dy":0.0025,"dx":0.0025,"nx":19,"ny":19,"refTime":"2026-05-09T03:00:00:Z","depth":"4","parameterNumber":3,"parameterNumberName":"V-component_of_CURRENTS"},"data":[0,0,0,0.0194,0.0194,0.0187,0.0187,0.0194,0.0194,0,0,0,0,0,0,0,0,0,0,0,0.0187,0.0187,0.0194,0.0194,0.0187,0.0187,0.0194,0.0194,0,0,0,0,0,0,0,0,0,0,0,0.0187,0.0187,0.0187,0.0194,0.0187,0.0187,0.0194,0.0192,0,0,0,0,0,0,0,0,0,0,0.0196,0.0199,0.0187,0.0187,0.0194,0.0188,0.0187,0.0192,0.0192,0.0205,0,0.0204,0,0.0209,0.0196,0.0196,0,0,0,0.0183,0.0198,0.0193,0.0187,0.0194,0.0188,0.0187,0.0192,0.0193,0.0206,0.0205,0.0205,0.021,0.0196,0.0196,0.0219,0.0219,0,0,0.0183,0.0189,0.0193,0.0194,0.0194,0.0187,0.0187,0.0192,0.0196,0.0205,0.0205,0.021,0.0196,0.0197,0.0219,0.0219,0,0,0,0.0192,0.019,0.0184,0.0193,0.0196,0.0188,0.0187,0.0195,0.0193,0.0205,0.021,0.0197,0.0197,0.0219,0.0219,0.0228,0,0,0,0.0191,0.0196,0.0184,0.0188,0.0196,0.0197,0.0191,0.0192,0.0193,0.021,0.0197,0.0197,0.0219,0.0219,0.0228,0.0239,0,0,0,0.0187,0.0196,0.0194,0.0189,0.0191,0.0197,0.0193,0.0192,0.0196,0.0196,0.0197,0.0219,0.0219,0.0228,0.0239,0.0241,0,0,0,0.0194,0.02,0.0194,0.021,0.0192,0.0208,0.0193,0.0201,0.0203,0.0197,0.0219,0.0219,0.0227,0.0238,0.0241,0.0244,0,0,0,0.0206,0.0202,0.0213,0.0208,0.0219,0.0208,0.0224,0.0213,0.0207,0.0216,0.0217,0.0228,0.0239,0.0241,0.0249,0,0,0,0,0.0221,0.0222,0.0226,0.0234,0.0243,0.0242,0.0238,0.0228,0.0219,0.0211,0.0227,0.0234,0.0235,0.0235,0.0219,0.0219,0.0219,0.0219,0.0219,0.0217,0.0229,0.0244,0.0255,0.0267,0.0266,0.0259,0.0245,0.0241,0.0232,0.0241,0.0249,0.025,0.0236,0.0236,0.0236,0.0236,0.0236,0.0236,0.0224,0.023,0.0251,0.0267,0.0274,0.0289,0.0282,0.0267,0.0257,0.0248,0.0248,0.0244,0.0237,0.0237,0.0236,0.0236,0.0236,0.0236,0.0236,0.0211,0.0216,0.0237,0.0262,0.0284,0.0295,0.031,0.0294,0.0271,0.027,0.0268,0.0257,0.0257,0.027,0.027,0.027,0.027,0.027,0.027,0.0182,0.0208,0.0224,0.0254,0.0274,0.0306,0.0326,0.0323,0.0302,0.0286,0.0277,0.0261,0.026,0.0259,0.0271,0.0271,0.0271,0.0271,0.0271,0.0159,0.0174,0.0203,0.0224,0.0286,0.0316,0.0341,0.0341,0.0333,0.031,0.0288,0.0287,0.0285,0.0283,0.0284,0.0303,0.0303,0.0303,0,0.0132,0.0144,0.0197,0.0247,0.0295,0.0332,0.0348,0.0354,0.0318,0.0315,0.0316,0.0292,0.0291,0.0289,0.0287,0.0288,0,0,0,0.0111,0.0136,0.0176,0.0249,0.0308,0.0345,0.0362,0.0353,0.0331,0.0319,0.0306,0.0305,0.0292,0.0274,0.0268,0.0267,0.0266,0,0]}]]